| time (UTC) | temp C | wind direction | speed KPH | gust KPH | rain 1hr cm | rain 24hr cm | rain mn cm | humidity % | barometer mb |
| 20260504081049 | 8 | 338 | 3.2 | 4.8 | 0.00 | 0.00 | 0.00 | 38 | 1018.0 |
| 20260504045049 | 8 | 360 | 0.0 | 0.0 | 0.00 | 0.00 | 0.00 | 38 | 1018.7 |
| 20260504044047 | 8 | 360 | 0.0 | 0.0 | 0.00 | 0.00 | 0.00 | 38 | 1018.7 |
| 20260504043049 | 8 | 360 | 0.0 | 0.0 | 0.00 | 0.00 | 0.00 | 38 | 1018.7 |
| 20260504042046 | 8 | 360 | 0.0 | 0.0 | 0.00 | 0.00 | 0.00 | 38 | 1018.7 |
| 20260504041047 | 8 | 360 | 3.2 | 3.2 | 0.00 | 0.00 | 0.00 | 37 | 1018.7 |
| 20260504040047 | 8 | 23 | 1.6 | 3.2 | 0.00 | 0.00 | 0.00 | 37 | 1018.7 |
| 20260504035049 | 8 | 338 | 3.2 | 4.8 | 0.00 | 0.00 | 0.00 | 37 | 1018.7 |
| 20260504034046 | 8 | 360 | 3.2 | 4.8 | 0.00 | 0.00 | 0.00 | 37 | 1019.0 |
| 20260504033047 | 8 | 360 | 3.2 | 4.8 | 0.00 | 0.00 | 0.00 | 37 | 1018.7 |
| 20260504032049 | 8 | 360 | 3.2 | 3.2 | 0.00 | 0.00 | 0.00 | 37 | 1018.7 |
| 20260504031047 | 8 | 360 | 3.2 | 3.2 | 0.00 | 0.00 | 0.00 | 37 | 1018.7 |
| 20260504030049 | 8 | 360 | 3.2 | 3.2 | 0.00 | 0.00 | 0.00 | 37 | 1018.7 |
| 20260504025047 | 8 | 360 | 0.0 | 0.0 | 0.00 | 0.00 | 0.00 | 36 | 1018.3 |
| 20260504024047 | 8 | 23 | 0.0 | 0.0 | 0.00 | 0.00 | 0.00 | 36 | 1018.7 |
| 20260504023047 | 8 | 360 | 0.0 | 0.0 | 0.00 | 0.00 | 0.00 | 36 | 1019.0 |
| 20260504022047 | 8 | 360 | 0.0 | 0.0 | 0.00 | 0.00 | 0.00 | 36 | 1018.7 |
| 20260504021047 | 8 | 23 | 0.0 | 0.0 | 0.00 | 0.00 | 0.00 | 36 | 1018.7 |
| 20260504020047 | 8 | 23 | 0.0 | 0.0 | 0.00 | 0.00 | 0.00 | 36 | 1018.7 |
| 20260504015047 | 8 | 23 | 0.0 | 0.0 | 0.00 | 0.00 | 0.00 | 36 | 1018.3 |
| 20260504014048 | 8 | 45 | 0.0 | 0.0 | 0.00 | 0.00 | 0.00 | 36 | 1018.3 |
| 20260504013047 | 8 | 23 | 0.0 | 0.0 | 0.00 | 0.00 | 0.00 | 35 | 1018.3 |
| 20260504012047 | 8 | 360 | 0.0 | 0.0 | 0.00 | 0.00 | 0.00 | 36 | 1018.0 |
| 20260504011047 | 8 | 360 | 0.0 | 0.0 | 0.00 | 0.00 | 0.00 | 35 | 1018.0 |
| 20260504010048 | 8 | 360 | 1.6 | 3.2 | 0.00 | 0.00 | 0.00 | 35 | 1018.0 |
| 20260504005047 | 8 | 360 | 1.6 | 3.2 | 0.00 | 0.00 | 0.00 | 35 | 1018.0 |
| 20260504004047 | 8 | 360 | 3.2 | 3.2 | 0.00 | 0.00 | 0.00 | 35 | 1018.0 |
| 20260504003047 | 8 | 360 | 1.6 | 3.2 | 0.00 | 0.00 | 0.00 | 35 | 1018.0 |
| 20260504002047 | 8 | 23 | 1.6 | 3.2 | 0.00 | 0.00 | 0.00 | 35 | 1018.0 |
| 20260504001046 | 8 | 360 | 3.2 | 3.2 | 0.00 | 0.00 | 0.00 | 35 | 1017.6 |
| 20260504000049 | 9 | 360 | 1.6 | 3.2 | 0.00 | 0.00 | 0.00 | 35 | 1018.0 |
| 20260503235047 | 10 | 360 | 3.2 | 4.8 | 0.00 | 0.00 | 0.00 | 32 | 1017.6 |
| 20260503234050 | 10 | 315 | 3.2 | 3.2 | 0.00 | 0.00 | 0.00 | 33 | 1018.0 |
| 20260503233049 | 10 | 360 | 1.6 | 3.2 | 0.00 | 0.00 | 0.00 | 33 | 1017.6 |
| 20260503232046 | 11 | 338 | 3.2 | 3.2 | 0.00 | 0.00 | 0.00 | 32 | 1017.6 |
| 20260503231049 | 11 | 338 | 3.2 | 4.8 | 0.00 | 0.00 | 0.00 | 31 | 1017.6 |
| 20260503230047 | 11 | 338 | 3.2 | 3.2 | 0.00 | 0.00 | 0.00 | 30 | 1017.6 |
| 20260503225047 | 12 | 338 | 4.8 | 4.8 | 0.00 | 0.00 | 0.00 | 29 | 1017.6 |
| 20260503224047 | 12 | 338 | 4.8 | 4.8 | 0.00 | 0.00 | 0.00 | 29 | 1017.6 |
| 20260503223047 | 11 | 360 | 3.2 | 3.2 | 0.00 | 0.00 | 0.00 | 30 | 1017.3 |
| 20260503222047 | 12 | 23 | 4.8 | 6.4 | 0.00 | 0.00 | 0.00 | 28 | 1017.6 |
| 20260503221047 | 12 | 360 | 0.0 | 1.6 | 0.00 | 0.00 | 0.00 | 29 | 1017.6 |
| 20260503220049 | 12 | 315 | 4.8 | 6.4 | 0.00 | 0.00 | 0.00 | 28 | 1017.6 |
| 20260503215047 | 12 | 360 | 6.4 | 8.0 | 0.00 | 0.00 | 0.00 | 28 | 1017.6 |
| 20260503214046 | 12 | 338 | 6.4 | 9.7 | 0.00 | 0.00 | 0.00 | 26 | 1017.6 |
| 20260503213047 | 12 | 360 | 8.0 | 11.3 | 0.00 | 0.00 | 0.00 | 27 | 1017.6 |
| 20260503212047 | 13 | 360 | 6.4 | 8.0 | 0.00 | 0.00 | 0.00 | 27 | 1017.6 |
| 20260503211047 | 12 | 338 | 4.8 | 6.4 | 0.00 | 0.00 | 0.00 | 28 | 1017.6 |
| 20260503205047 | 13 | 315 | 4.8 | 6.4 | 0.00 | 0.00 | 0.00 | 29 | 1017.6 |
| 20260503204047 | 12 | 315 | 6.4 | 8.0 | 0.00 | 0.00 | 0.00 | 31 | 1017.6 |
| 20260503203049 | 13 | 315 | 4.8 | 6.4 | 0.00 | 0.00 | 0.00 | 27 | 1017.6 |
| 20260503202047 | 12 | 360 | 8.0 | 8.0 | 0.00 | 0.00 | 0.00 | 29 | 1017.6 |
| 20260503201047 | 13 | 315 | 8.0 | 11.3 | 0.00 | 0.00 | 0.00 | 27 | 1018.0 |
| 20260503200047 | 12 | 360 | 4.8 | 8.0 | 0.00 | 0.00 | 0.00 | 28 | 1018.0 |
| 20260503195049 | 12 | 23 | 6.4 | 8.0 | 0.00 | 0.00 | 0.00 | 30 | 1018.3 |
| 20260503194047 | 12 | 315 | 6.4 | 9.7 | 0.00 | 0.00 | 0.00 | 31 | 1018.3 |
| 20260503193047 | 12 | 315 | 6.4 | 8.0 | 0.00 | 0.00 | 0.00 | 31 | 1018.3 |
| 20260503192047 | 11 | 315 | 9.7 | 11.3 | 0.00 | 0.00 | 0.00 | 31 | 1018.3 |
| 20260503191047 | 11 | 360 | 6.4 | 8.0 | 0.00 | 0.00 | 0.00 | 30 | 1018.3 |
| 20260503190048 | 12 | 338 | 4.8 | 8.0 | 0.00 | 0.00 | 0.00 | 31 | 1018.7 |
| 20260503185047 | 12 | 315 | 4.8 | 6.4 | 0.00 | 0.00 | 0.00 | 34 | 1018.7 |
| 20260503184047 | 12 | 338 | 4.8 | 6.4 | 0.00 | 0.00 | 0.00 | 32 | 1019.0 |
| 20260503183047 | 10 | 338 | 9.7 | 11.3 | 0.00 | 0.00 | 0.00 | 34 | 1018.7 |
| 20260503182047 | 11 | 338 | 4.8 | 8.0 | 0.00 | 0.00 | 0.00 | 35 | 1019.0 |
| 20260503181049 | 11 | 293 | 6.4 | 8.0 | 0.00 | 0.00 | 0.00 | 36 | 1018.7 |
| 20260503180047 | 10 | 338 | 6.4 | 8.0 | 0.00 | 0.00 | 0.00 | 35 | 1019.0 |
| 20260503175047 | 11 | 315 | 8.0 | 8.0 | 0.00 | 0.00 | 0.00 | 35 | 1018.7 |
| 20260503174047 | 10 | 293 | 8.0 | 9.7 | 0.00 | 0.00 | 0.00 | 35 | 1019.0 |
| 20260503173047 | 9 | 360 | 8.0 | 9.7 | 0.00 | 0.00 | 0.00 | 37 | 1019.0 |
| 20260503172049 | 10 | 315 | 6.4 | 8.0 | 0.00 | 0.00 | 0.00 | 36 | 1019.0 |
| 20260503171047 | 8 | 293 | 9.7 | 12.9 | 0.00 | 0.00 | 0.00 | 38 | 1019.0 |